Location: Newark
(10.9667°N, 4.8167°W)
Time: 23:10:25
(UTC+00:00)

Hubble Space Telescope - Pass Details

Date: 12 December 2019
Orbit: 536 x 540 km, 28.5° (Epoch: 26 January)

Event Time Altitude Azimuth Distance (km) Brightness Sun altitude
Exits shadow 05:32:13 22° 284° (WNW) 1,207 1.9 -13.5°
Maximum altitude 05:34:16 35° 335° (NNW) 865 1.4 -13.0°
Drops below altitude 10° 05:38:04 10° 43° (NE) 1,782 3.7 -12.2°
Sets 05:40:28 0° 52° (NE) 2,673 4.8 -11.6°
